Weather History for Fairbanks, AK

Change the Weather History Date:

Tuesday, October 8, 2013

  Actual Average Record
Temperature  
Mean Temperature 4 °C -1 °C  
Max Temperature 10 °C 4 °C 16 °C (1969)
Min Temperature -2 °C -5 °C -18 °C (1919)
Degree Days  
Heating Degree Days 25 34  
Month to date heating degree days 221 250  
Since 1 July heating degree days 1110 1244  
Cooling Degree Days 0 0  
Month to date cooling degree days 0 0  
Year to date cooling degree days 226 61  
Moisture  
Dew Point -1 °C    
Average Humidity 60    
Maximum Humidity 88    
Minimum Humidity 38    
Precipitation  
Precipitation T mm 0.76 mm 1.50 mm (1916)
Month to date precipitation 0.01 0.23  
Year to date precipitation 7.55 8.90  
Snow  
Snow 0.00 cm 0.76 cm 19.05 cm (1905)
Month to date snowfall 0.1 1.8  
Since 1 July snowfall 0.8 3.6  
Since 1 September snowfall 0.8 3.6  
Snow Depth 0.00 cm    
Sea Level Pressure  
Sea Level Pressure 990 hPa    
Wind  
Wind Speed 13 km/h (NE)    
Max Wind Speed 21 km/h    
Max Gust Speed -    
Visibility 16 kilometers    
Events Rain    
T = Trace of Precipitation, MM = Missing Value Source: NWS Daily Summary

Daily Weather History Graph

Daily Weather History Graph

Search for Another Location

Airport:

Trip Planner

Search our weather history database for the weather conditions in past years. The results will help you decide how hot, cold, wet, or windy it might be!

Date:

Astronomy

Oct. 08, 2013 Rise Set
Actual Time 8:23 AM AKDT 6:52 PM AKDT
Civil Twilight 7:34 AM AKDT 7:41 PM AKDT
Nautical Twilight 6:37 AM AKDT 8:38 PM AKDT
Astronomical Twilight 5:38 AM AKDT 9:37 PM AKDT
Moon 2:04 PM AKDT (10/8) 7:59 PM AKDT (10/8)
Length of Visible Light 12h 07m
Length of Day
10h 29m
Waxing Crescent, 17% of the Moon is Illuminated
Oct 8
Waxing Crescent
Oct 11
First Quarter
Oct 18
Full
Oct 26
Last Quarter
Nov 3
New

Hourly Weather History & Observations

Time (AKDT) Temp. Windchill Dew Point Humidity Pressure Visibility Wind Dir Wind Speed Gust Speed Precip Events Conditions
12:53 AM -1.1 °C -5.7 °C -2.8 °C 88% 1005.4 hPa 16.1 km NE 14.8 km/h / 4.1 m/s - N/A   Scattered Clouds
1:53 AM 0.6 °C -3.6 °C -2.2 °C 82% 1003.5 hPa 16.1 km NE 14.8 km/h / 4.1 m/s - N/A   Mostly Cloudy
2:53 AM 1.1 °C -3.3 °C -2.2 °C 79% 1001.4 hPa 16.1 km NE 16.7 km/h / 4.6 m/s - N/A   Mostly Cloudy
3:53 AM 2.8 °C -1.7 °C -2.8 °C 67% 999.0 hPa 16.1 km NE 20.4 km/h / 5.7 m/s - N/A   Mostly Cloudy
4:53 AM 3.9 °C -0.1 °C -3.3 °C 60% 997.3 hPa 16.1 km ENE 18.5 km/h / 5.1 m/s - N/A   Mostly Cloudy
5:53 AM 5.0 °C 1.5 °C -3.9 °C 53% 995.5 hPa 16.1 km ENE 16.7 km/h / 4.6 m/s - N/A   Mostly Cloudy
6:53 AM 5.6 °C 2.8 °C -3.9 °C 51% 994.3 hPa 16.1 km ENE 13.0 km/h / 3.6 m/s - N/A   Mostly Cloudy
7:53 AM 5.0 °C 2.1 °C -3.3 °C 55% 993.3 hPa 16.1 km NE 13.0 km/h / 3.6 m/s - N/A   Mostly Cloudy
8:53 AM 5.6 °C 2.8 °C -2.8 °C 55% 992.5 hPa 16.1 km NE 13.0 km/h / 3.6 m/s - N/A   Mostly Cloudy
9:53 AM 6.1 °C 3.8 °C -2.8 °C 53% 991.9 hPa 16.1 km NNE 11.1 km/h / 3.1 m/s - N/A   Mostly Cloudy
10:53 AM 6.1 °C 4.6 °C 0.0 °C 65% 990.0 hPa 16.1 km NE 7.4 km/h / 2.1 m/s - N/A Rain Light Rain
11:53 AM 7.2 °C - 1.1 °C 65% 989.0 hPa 16.1 km Calm Calm - N/A   Overcast
12:53 PM 7.8 °C 6.2 °C 1.1 °C 63% 988.0 hPa 16.1 km NE 9.3 km/h / 2.6 m/s - N/A   Overcast
1:53 PM 8.3 °C - 1.1 °C 61% 987.0 hPa 16.1 km NE 9.3 km/h / 2.6 m/s - N/A   Overcast
2:53 PM 10.0 °C - 0.0 °C 50% 985.5 hPa 16.1 km East 16.7 km/h / 4.6 m/s - N/A   Mostly Cloudy
3:53 PM 10.0 °C - 0.0 °C 50% 984.4 hPa 16.1 km East 11.1 km/h / 3.1 m/s - N/A   Mostly Cloudy
4:53 PM 10.0 °C - -0.6 °C 48% 983.8 hPa 16.1 km East 11.1 km/h / 3.1 m/s - N/A   Mostly Cloudy
5:53 PM 9.4 °C - 0.0 °C 52% 983.2 hPa 16.1 km NNE 9.3 km/h / 2.6 m/s - N/A   Mostly Cloudy
6:53 PM 7.2 °C 5.5 °C 0.0 °C 60% 982.6 hPa 16.1 km NNE 9.3 km/h / 2.6 m/s - N/A   Mostly Cloudy
7:53 PM 7.2 °C - -0.6 °C 58% 982.1 hPa 16.1 km Calm Calm - N/A   Mostly Cloudy
8:53 PM 6.1 °C - 0.0 °C 65% 981.7 hPa 16.1 km Calm Calm - N/A   Mostly Cloudy
9:53 PM 5.6 °C - 0.0 °C 67% 981.2 hPa 16.1 km Calm Calm - N/A   Overcast
10:53 PM 5.6 °C 4.0 °C 0.0 °C 67% 981.5 hPa 16.1 km Variable 7.4 km/h / 2.1 m/s - N/A Rain Light Rain
11:53 PM 6.1 °C - 0.6 °C 68% 981.7 hPa 16.1 km Calm Calm - N/A   Overcast